Location: Pel�-Koumbol�
(14.9505°N, 3.0798°W)
Time: 14:26:47
(UTC+00:00)

Aureole 1 Rocket - Pass Details

Date: 17 February 2020
Orbit: 378 x 1381 km, 73.9° (Epoch: 29 March)

Event Time Altitude Azimuth Distance (km) Brightness Sun altitude
Exits shadow 04:24:58 - 182° (S) 2,785 6.4 -32.1°
Reaches altitude 10° 04:25:41 10° 181° (S) 2,530 6.2 -31.9°
Maximum altitude 04:31:35 64° 100° (E) 1,156 4.5 -30.5°
Drops below altitude 10° 04:39:07 10° 21° (NNE) 3,206 6.8 -28.7°
Sets 04:42:10 0° 18° (NNE) 4,274 7.5 -28.0°
